| time (UTC) | temp C | wind direction | speed KPH | gust KPH | rain 1hr cm | rain 24hr cm | rain mn cm | humidity % | barometer mb |
| 20260510164604 | 21 | 335 | 4.8 | 12.9 | 0.00 | 0.64 | 0.03 | 66 | 1013.6 |
| 20260510164104 | 21 | 353 | 8.0 | 14.5 | 0.00 | 0.64 | 0.03 | 68 | 1013.7 |
| 20260510163603 | 21 | 346 | 4.8 | 20.9 | 0.00 | 0.64 | 0.03 | 70 | 1013.7 |
| 20260510163104 | 21 | 266 | 6.4 | 16.1 | 0.00 | 0.64 | 0.03 | 67 | 1013.7 |
| 20260510162604 | 20 | 311 | 3.2 | 9.7 | 0.00 | 0.64 | 0.03 | 70 | 1013.6 |
| 20260510162105 | 20 | 347 | 4.8 | 14.5 | 0.00 | 0.64 | 0.03 | 69 | 1013.8 |
| 20260510161603 | 20 | 294 | 9.7 | 19.3 | 0.00 | 0.64 | 0.03 | 69 | 1014.0 |
| 20260510161104 | 20 | 32 | 3.2 | 4.8 | 0.00 | 0.64 | 0.03 | 69 | 1014.0 |
| 20260510160603 | 20 | 336 | 3.2 | 11.3 | 0.00 | 0.64 | 0.03 | 69 | 1014.0 |
| 20260510160105 | 20 | 289 | 4.8 | 16.1 | 0.00 | 0.64 | 0.03 | 69 | 1014.1 |
| 20260510155604 | 20 | 290 | 6.4 | 24.1 | 0.00 | 0.64 | 0.03 | 68 | 1014.0 |
| 20260510154604 | 20 | 271 | 8.0 | 16.1 | 0.00 | 0.66 | 0.03 | 72 | 1014.2 |
| 20260510154104 | 20 | 247 | 8.0 | 16.1 | 0.00 | 0.66 | 0.03 | 71 | 1014.2 |
| 20260510153604 | 20 | 315 | 4.8 | 14.5 | 0.00 | 0.66 | 0.03 | 71 | 1014.2 |
| 20260510152603 | 20 | 355 | 6.4 | 12.9 | 0.00 | 0.66 | 0.03 | 72 | 1014.1 |
| 20260510152104 | 20 | 289 | 4.8 | 16.1 | 0.00 | 0.69 | 0.03 | 75 | 1014.1 |
| 20260510151104 | 18 | 303 | 4.8 | 12.9 | 0.00 | 0.69 | 0.03 | 80 | 1014.0 |
| 20260510150105 | 18 | 192 | 1.6 | 4.8 | 0.00 | 0.69 | 0.03 | 81 | 1014.1 |
| 20260510145105 | 18 | 148 | 3.2 | 9.7 | 0.00 | 0.69 | 0.03 | 82 | 1014.0 |
| 20260510144605 | 18 | 174 | 1.6 | 4.8 | 0.00 | 0.69 | 0.03 | 83 | 1014.0 |
| 20260510144105 | 18 | 189 | 4.8 | 8.0 | 0.00 | 0.69 | 0.03 | 84 | 1014.0 |
| 20260510143605 | 17 | 199 | 1.6 | 9.7 | 0.00 | 0.69 | 0.03 | 85 | 1014.0 |
| 20260510143105 | 17 | 195 | 3.2 | 9.7 | 0.00 | 0.69 | 0.03 | 85 | 1014.1 |
| 20260510142604 | 17 | 192 | 3.2 | 8.0 | 0.00 | 0.69 | 0.03 | 88 | 1014.1 |
| 20260510142106 | 16 | 191 | 3.2 | 4.8 | 0.00 | 0.69 | 0.03 | 88 | 1014.3 |
| 20260510140105 | 15 | 193 | 8.0 | 16.1 | 0.00 | 0.69 | 0.03 | 92 | 1014.0 |
| 20260510135605 | 15 | 168 | 4.8 | 11.3 | 0.00 | 0.69 | 0.03 | 93 | 1014.1 |
| 20260510134605 | 15 | 221 | 3.2 | 8.0 | 0.00 | 0.69 | 0.03 | 95 | 1014.2 |
| 20260510134105 | 14 | 174 | 0.0 | 1.6 | 0.00 | 0.69 | 0.03 | 95 | 1014.3 |
| 20260510133605 | 14 | 174 | 3.2 | 4.8 | 0.00 | 0.69 | 0.03 | 96 | 1014.4 |
| 20260510133105 | 15 | 255 | 1.6 | 3.2 | 0.00 | 0.69 | 0.03 | 96 | 1014.4 |
| 20260510132604 | 14 | 255 | 1.6 | 4.8 | 0.00 | 0.69 | 0.03 | 96 | 1014.4 |
| 20260510132106 | 13 | 255 | 0.0 | 1.6 | 0.00 | 0.69 | 0.03 | 96 | 1014.3 |
| 20260510131605 | 13 | 255 | 1.6 | 4.8 | 0.00 | 0.69 | 0.03 | 96 | 1014.4 |
| 20260510131104 | 13 | 254 | 1.6 | 4.8 | 0.00 | 0.69 | 0.03 | 97 | 1014.4 |
| 20260510130605 | 13 | 212 | 1.6 | 4.8 | 0.00 | 0.69 | 0.03 | 97 | 1014.4 |
| 20260510130105 | 13 | 218 | 1.6 | 4.8 | 0.00 | 0.69 | 0.03 | 97 | 1014.3 |
| 20260510125105 | 12 | 354 | 0.0 | 0.0 | 0.00 | 0.69 | 0.03 | 97 | 1014.4 |
| 20260510124605 | 12 | 355 | 0.0 | 0.0 | 0.00 | 0.69 | 0.03 | 97 | 1014.3 |
| 20260510124105 | 12 | 355 | 0.0 | 0.0 | 0.00 | 0.69 | 0.03 | 97 | 1014.2 |
| 20260510123604 | 12 | 355 | 0.0 | 0.0 | 0.00 | 0.69 | 0.03 | 96 | 1014.3 |
| 20260510123104 | 12 | 355 | 0.0 | 0.0 | 0.00 | 0.69 | 0.03 | 96 | 1014.0 |
| 20260510122605 | 11 | 355 | 0.0 | 0.0 | 0.00 | 0.69 | 0.03 | 96 | 1014.0 |
| 20260510122106 | 12 | 355 | 0.0 | 0.0 | 0.00 | 0.69 | 0.03 | 96 | 1013.9 |
| 20260510121606 | 11 | 355 | 0.0 | 0.0 | 0.00 | 0.69 | 0.03 | 97 | 1013.9 |
| 20260510120605 | 11 | 355 | 0.0 | 0.0 | 0.00 | 0.69 | 0.03 | 96 | 1013.8 |
| 20260510115605 | 11 | 355 | 0.0 | 0.0 | 0.00 | 0.69 | 0.03 | 97 | 1013.7 |
| 20260510115106 | 11 | 355 | 0.0 | 0.0 | 0.00 | 0.69 | 0.03 | 96 | 1013.7 |
| 20260510114605 | 11 | 355 | 0.0 | 0.0 | 0.00 | 0.69 | 0.03 | 97 | 1013.8 |
| 20260510114105 | 11 | 355 | 0.0 | 0.0 | 0.00 | 0.69 | 0.03 | 97 | 1013.6 |
| 20260510113105 | 11 | 355 | 0.0 | 0.0 | 0.00 | 0.69 | 0.03 | 96 | 1013.5 |
| 20260510112604 | 11 | 355 | 0.0 | 0.0 | 0.00 | 0.69 | 0.03 | 96 | 1013.6 |
| 20260510112104 | 11 | 355 | 0.0 | 0.0 | 0.00 | 0.69 | 0.03 | 97 | 1013.5 |
| 20260510111605 | 11 | 355 | 0.0 | 0.0 | 0.00 | 0.69 | 0.03 | 97 | 1013.2 |
| 20260510111105 | 11 | 355 | 0.0 | 0.0 | 0.00 | 0.69 | 0.03 | 96 | 1013.2 |
| 20260510110604 | 11 | 355 | 0.0 | 0.0 | 0.00 | 0.69 | 0.03 | 96 | 1013.3 |
| 20260510110105 | 11 | 355 | 0.0 | 0.0 | 0.00 | 0.69 | 0.03 | 96 | 1013.1 |
| 20260510105605 | 10 | 355 | 0.0 | 0.0 | 0.00 | 0.69 | 0.03 | 96 | 1013.3 |
| 20260510105105 | 10 | 355 | 0.0 | 0.0 | 0.00 | 0.69 | 0.03 | 96 | 1013.1 |
| 20260510104604 | 10 | 355 | 0.0 | 0.0 | 0.00 | 0.69 | 0.03 | 96 | 1012.9 |
| 20260510104105 | 10 | 355 | 0.0 | 0.0 | 0.00 | 0.69 | 0.03 | 96 | 1012.9 |
| 20260510103104 | 10 | 355 | 0.0 | 0.0 | 0.00 | 0.69 | 0.03 | 96 | 1012.8 |
| 20260510102105 | 10 | 355 | 0.0 | 0.0 | 0.00 | 0.69 | 0.03 | 96 | 1013.0 |
| 20260510101606 | 10 | 355 | 0.0 | 0.0 | 0.00 | 0.69 | 0.03 | 96 | 1012.8 |
| 20260510101106 | 10 | 355 | 0.0 | 0.0 | 0.00 | 0.69 | 0.03 | 96 | 1012.7 |
| 20260510100606 | 10 | 355 | 0.0 | 0.0 | 0.00 | 0.69 | 0.03 | 96 | 1012.7 |
| 20260510100105 | 10 | 355 | 0.0 | 0.0 | 0.00 | 0.69 | 0.03 | 96 | 1012.5 |
| 20260510094604 | 10 | 355 | 0.0 | 0.0 | 0.00 | 0.69 | 0.03 | 96 | 1012.6 |
| 20260510094104 | 10 | 355 | 0.0 | 0.0 | 0.00 | 0.69 | 0.03 | 96 | 1012.6 |
| 20260510093605 | 10 | 355 | 0.0 | 1.6 | 0.00 | 0.69 | 0.03 | 96 | 1012.4 |
| 20260510093104 | 10 | 355 | 0.0 | 3.2 | 0.00 | 0.69 | 0.03 | 96 | 1012.2 |
| 20260510092606 | 10 | 354 | 0.0 | 1.6 | 0.00 | 0.69 | 0.03 | 96 | 1012.2 |
| 20260510092105 | 10 | 354 | 1.6 | 3.2 | 0.00 | 0.69 | 0.03 | 96 | 1012.3 |
| 20260510091105 | 9 | 354 | 0.0 | 1.6 | 0.00 | 0.69 | 0.03 | 96 | 1012.2 |
| 20260510090605 | 9 | 355 | 0.0 | 0.0 | 0.00 | 0.69 | 0.03 | 96 | 1012.4 |
| 20260510090105 | 9 | 355 | 0.0 | 0.0 | 0.00 | 0.69 | 0.03 | 96 | 1012.4 |
| 20260510085604 | 9 | 355 | 0.0 | 0.0 | 0.00 | 0.69 | 0.03 | 96 | 1012.5 |
| 20260510084605 | 10 | 355 | 0.0 | 3.2 | 0.03 | 0.69 | 0.03 | 96 | 1012.6 |
| 20260510084104 | 10 | 355 | 3.2 | 4.8 | 0.03 | 0.69 | 0.03 | 96 | 1012.6 |
| 20260510083605 | 10 | 352 | 1.6 | 3.2 | 0.03 | 0.69 | 0.03 | 96 | 1012.7 |
| 20260510082606 | 10 | 352 | 0.0 | 0.0 | 0.03 | 0.69 | 0.03 | 96 | 1012.9 |
| 20260510081605 | 10 | 352 | 0.0 | 0.0 | 0.03 | 0.69 | 0.03 | 96 | 1012.9 |
| 20260510080604 | 10 | 352 | 0.0 | 1.6 | 0.03 | 0.69 | 0.03 | 96 | 1013.0 |
| 20260510075604 | 10 | 352 | 0.0 | 3.2 | 0.03 | 0.69 | 0.03 | 96 | 1013.2 |
| 20260510075105 | 10 | 352 | 0.0 | 0.0 | 0.00 | 0.69 | 0.00 | 96 | 1013.3 |
| 20260510074606 | 10 | 352 | 0.0 | 0.0 | 0.00 | 0.69 | 0.00 | 96 | 1013.3 |
| 20260510074106 | 10 | 352 | 0.0 | 0.0 | 0.00 | 0.69 | 0.00 | 96 | 1013.5 |
| 20260510073604 | 10 | 352 | 0.0 | 0.0 | 0.00 | 0.69 | 0.00 | 96 | 1013.4 |
| 20260510073105 | 10 | 352 | 0.0 | 0.0 | 0.00 | 0.69 | 0.00 | 96 | 1013.4 |
| 20260510072604 | 10 | 352 | 0.0 | 3.2 | 0.00 | 0.69 | 0.00 | 96 | 1013.4 |
| 20260510072104 | 10 | 352 | 0.0 | 3.2 | 0.00 | 0.71 | 0.00 | 96 | 1013.4 |
| 20260510071605 | 10 | 352 | 0.0 | 3.2 | 0.00 | 0.71 | 0.00 | 96 | 1013.4 |
| 20260510071104 | 10 | 349 | 0.0 | 3.2 | 0.00 | 0.71 | 0.00 | 96 | 1013.5 |
| 20260510070104 | 9 | 290 | 1.6 | 4.8 | 0.00 | 0.76 | 0.00 | 96 | 1013.4 |
| 20260510065604 | 8 | 274 | 0.0 | 0.0 | 0.00 | 0.76 | 0.00 | 96 | 1013.1 |
| 20260510065105 | 8 | 274 | 0.0 | 0.0 | 0.00 | 0.76 | 0.00 | 95 | 1012.9 |
| 20260510064605 | 8 | 274 | 0.0 | 0.0 | 0.00 | 0.76 | 0.00 | 96 | 1012.8 |
| 20260510064105 | 8 | 274 | 0.0 | 0.0 | 0.00 | 0.76 | 0.00 | 95 | 1012.7 |
| 20260510063604 | 8 | 274 | 0.0 | 0.0 | 0.00 | 0.76 | 0.00 | 95 | 1012.8 |
| 20260510063104 | 8 | 274 | 0.0 | 0.0 | 0.00 | 0.76 | 0.00 | 95 | 1012.8 |
| 20260510062104 | 8 | 274 | 0.0 | 0.0 | 0.00 | 0.76 | 0.00 | 95 | 1012.9 |
| 20260510061605 | 8 | 274 | 0.0 | 0.0 | 0.00 | 0.76 | 0.00 | 95 | 1012.9 |
| 20260510061105 | 8 | 274 | 0.0 | 0.0 | 0.00 | 0.76 | 0.00 | 95 | 1013.1 |
| 20260510060604 | 8 | 274 | 0.0 | 0.0 | 0.00 | 0.76 | 0.00 | 95 | 1013.1 |
| 20260510060104 | 8 | 274 | 0.0 | 0.0 | 0.00 | 0.76 | 0.00 | 95 | 1013.1 |
| 20260510055104 | 8 | 274 | 0.0 | 0.0 | 0.00 | 0.76 | 0.00 | 95 | 1013.0 |
| 20260510053604 | 8 | 274 | 0.0 | 3.2 | 0.00 | 0.76 | 0.00 | 95 | 1012.8 |
| 20260510053105 | 8 | 274 | 1.6 | 3.2 | 0.00 | 0.76 | 0.00 | 95 | 1012.5 |
| 20260510052604 | 9 | 274 | 0.0 | 0.0 | 0.00 | 0.76 | 0.00 | 95 | 1012.3 |
| 20260510052105 | 9 | 274 | 0.0 | 0.0 | 0.00 | 0.76 | 0.00 | 95 | 1012.3 |
| 20260510051605 | 9 | 274 | 0.0 | 0.0 | 0.00 | 0.76 | 0.00 | 95 | 1012.3 |
| 20260510051105 | 9 | 274 | 0.0 | 0.0 | 0.00 | 0.76 | 0.00 | 95 | 1012.3 |
| 20260510050604 | 9 | 274 | 0.0 | 0.0 | 0.00 | 0.76 | 0.00 | 95 | 1012.3 |
| 20260510050104 | 9 | 274 | 0.0 | 4.8 | 0.00 | 0.76 | 0.00 | 95 | 1012.4 |
| 20260510045605 | 9 | 274 | 0.0 | 4.8 | 0.00 | 0.76 | 0.00 | 95 | 1012.5 |
| 20260510045105 | 9 | 271 | 1.6 | 8.0 | 0.00 | 0.76 | 0.00 | 95 | 1012.6 |
| 20260510044605 | 8 | 287 | 0.0 | 0.0 | 0.00 | 0.76 | 0.00 | 95 | 1012.7 |
| 20260510043604 | 8 | 287 | 0.0 | 0.0 | 0.00 | 0.76 | 0.00 | 95 | 1012.6 |
| 20260510043106 | 9 | 287 | 0.0 | 0.0 | 0.00 | 0.76 | 0.00 | 95 | 1012.5 |
| 20260510042605 | 9 | 287 | 0.0 | 0.0 | 0.00 | 0.76 | 0.00 | 95 | 1012.5 |
| 20260510042105 | 9 | 287 | 0.0 | 0.0 | 0.00 | 0.76 | 0.00 | 95 | 1012.5 |
| 20260510041105 | 9 | 287 | 0.0 | 0.0 | 0.00 | 0.76 | 0.00 | 95 | 1012.5 |
| 20260510040605 | 9 | 287 | 0.0 | 0.0 | 0.00 | 0.76 | 0.00 | 95 | 1012.4 |
| 20260510040105 | 9 | 287 | 0.0 | 0.0 | 0.00 | 0.76 | 0.00 | 95 | 1012.2 |
| 20260510035605 | 9 | 287 | 0.0 | 0.0 | 0.00 | 0.76 | 0.76 | 95 | 1012.2 |
| 20260510035105 | 9 | 287 | 0.0 | 0.0 | 0.00 | 0.76 | 0.76 | 95 | 1012.2 |
| 20260510034605 | 9 | 287 | 0.0 | 3.2 | 0.00 | 0.76 | 0.76 | 95 | 1012.2 |
| 20260510034105 | 9 | 287 | 1.6 | 4.8 | 0.00 | 0.76 | 0.76 | 95 | 1012.2 |
| 20260510033605 | 8 | 285 | 1.6 | 4.8 | 0.00 | 0.76 | 0.76 | 95 | 1012.1 |
| 20260510033104 | 8 | 281 | 0.0 | 0.0 | 0.00 | 0.76 | 0.76 | 95 | 1012.2 |
| 20260510032604 | 9 | 280 | 0.0 | 0.0 | 0.00 | 0.76 | 0.76 | 95 | 1012.2 |
| 20260510031604 | 9 | 281 | 0.0 | 0.0 | 0.00 | 0.76 | 0.76 | 94 | 1012.3 |
| 20260510031104 | 9 | 280 | 0.0 | 0.0 | 0.00 | 0.76 | 0.76 | 95 | 1012.2 |
| 20260510030105 | 9 | 280 | 0.0 | 0.0 | 0.00 | 0.76 | 0.76 | 94 | 1012.3 |
| 20260510025605 | 9 | 280 | 0.0 | 0.0 | 0.00 | 0.76 | 0.76 | 94 | 1012.3 |
| 20260510025105 | 9 | 281 | 0.0 | 0.0 | 0.00 | 0.76 | 0.76 | 95 | 1012.2 |
| 20260510024605 | 9 | 281 | 0.0 | 0.0 | 0.00 | 0.79 | 0.76 | 94 | 1012.4 |
| 20260510024106 | 9 | 281 | 0.0 | 0.0 | 0.00 | 0.79 | 0.76 | 94 | 1012.4 |
| 20260510023105 | 9 | 281 | 0.0 | 0.0 | 0.00 | 0.79 | 0.76 | 94 | 1012.6 |
| 20260510022605 | 9 | 280 | 0.0 | 0.0 | 0.00 | 0.79 | 0.76 | 94 | 1012.4 |
| 20260510022104 | 9 | 280 | 0.0 | 0.0 | 0.00 | 0.79 | 0.76 | 94 | 1012.3 |
| 20260510021604 | 9 | 281 | 0.0 | 0.0 | 0.00 | 0.79 | 0.76 | 94 | 1012.2 |
| 20260510021105 | 10 | 281 | 0.0 | 0.0 | 0.00 | 0.79 | 0.76 | 94 | 1012.1 |
| 20260510020106 | 10 | 280 | 0.0 | 0.0 | 0.00 | 0.79 | 0.76 | 94 | 1012.2 |
| 20260510015605 | 10 | 281 | 0.0 | 0.0 | 0.00 | 0.79 | 0.76 | 94 | 1012.2 |
| 20260510015104 | 10 | 281 | 0.0 | 0.0 | 0.00 | 0.79 | 0.76 | 94 | 1012.2 |
| 20260510014606 | 10 | 281 | 0.0 | 0.0 | 0.00 | 0.79 | 0.76 | 94 | 1012.2 |
| 20260510014105 | 10 | 281 | 0.0 | 0.0 | 0.00 | 0.79 | 0.76 | 94 | 1012.2 |
| 20260510013605 | 10 | 281 | 0.0 | 0.0 | 0.00 | 0.79 | 0.76 | 94 | 1012.3 |
| 20260510012605 | 10 | 281 | 0.0 | 0.0 | 0.00 | 0.79 | 0.76 | 93 | 1012.1 |
| 20260510012105 | 10 | 281 | 0.0 | 0.0 | 0.00 | 0.79 | 0.76 | 94 | 1012.1 |
| 20260510011605 | 10 | 281 | 0.0 | 0.0 | 0.00 | 0.79 | 0.76 | 93 | 1012.0 |
| 20260510010605 | 11 | 281 | 0.0 | 0.0 | 0.00 | 0.79 | 0.76 | 93 | 1011.8 |
| 20260510010106 | 11 | 281 | 0.0 | 1.6 | 0.00 | 0.79 | 0.76 | 93 | 1011.9 |
| 20260510005605 | 11 | 280 | 0.0 | 0.0 | 0.00 | 0.79 | 0.76 | 93 | 1011.8 |
| 20260510005105 | 11 | 280 | 0.0 | 0.0 | 0.00 | 0.79 | 0.76 | 93 | 1011.6 |
| 20260510004606 | 11 | 280 | 0.0 | 0.0 | 0.00 | 0.79 | 0.76 | 93 | 1011.6 |
| 20260510003605 | 11 | 280 | 1.6 | 4.8 | 0.00 | 0.79 | 0.76 | 93 | 1011.7 |
| 20260510002607 | 11 | 265 | 0.0 | 0.0 | 0.00 | 0.79 | 0.76 | 93 | 1011.5 |
| 20260510002105 | 11 | 265 | 0.0 | 0.0 | 0.00 | 0.79 | 0.76 | 93 | 1011.5 |
| 20260510001106 | 11 | 272 | 0.0 | 3.2 | 0.00 | 0.79 | 0.76 | 93 | 1011.4 |
| 20260510000605 | 12 | 214 | 0.0 | 4.8 | 0.00 | 0.79 | 0.76 | 93 | 1011.4 |
| 20260510000104 | 12 | 199 | 1.6 | 4.8 | 0.00 | 0.79 | 0.76 | 93 | 1011.4 |
| 20260509235605 | 12 | 196 | 3.2 | 8.0 | 0.00 | 0.79 | 0.76 | 93 | 1011.3 |
| 20260509235104 | 12 | 252 | 1.6 | 3.2 | 0.00 | 0.79 | 0.76 | 93 | 1011.2 |
| 20260509234606 | 12 | 198 | 1.6 | 4.8 | 0.00 | 0.79 | 0.76 | 93 | 1011.3 |
| 20260509234105 | 12 | 200 | 1.6 | 4.8 | 0.00 | 0.79 | 0.76 | 93 | 1011.2 |
| 20260509233605 | 12 | 201 | 3.2 | 8.0 | 0.00 | 0.79 | 0.76 | 93 | 1011.2 |
| 20260509233104 | 12 | 208 | 1.6 | 3.2 | 0.00 | 0.79 | 0.76 | 93 | 1011.2 |
| 20260509232605 | 12 | 209 | 3.2 | 11.3 | 0.00 | 0.79 | 0.76 | 93 | 1011.2 |
| 20260509232104 | 12 | 210 | 1.6 | 9.7 | 0.00 | 0.79 | 0.76 | 94 | 1011.1 |
| 20260509231605 | 12 | 194 | 3.2 | 9.7 | 0.00 | 0.79 | 0.76 | 94 | 1011.2 |
| 20260509231105 | 12 | 206 | 3.2 | 16.1 | 0.00 | 0.79 | 0.76 | 94 | 1011.3 |
| 20260509230604 | 12 | 201 | 6.4 | 12.9 | 0.00 | 0.79 | 0.76 | 94 | 1011.3 |
| 20260509230106 | 12 | 189 | 1.6 | 4.8 | 0.00 | 0.79 | 0.76 | 94 | 1011.3 |
| 20260509225105 | 12 | 195 | 1.6 | 14.5 | 0.00 | 0.79 | 0.76 | 94 | 1011.3 |
| 20260509224604 | 12 | 214 | 1.6 | 4.8 | 0.00 | 0.79 | 0.76 | 94 | 1011.3 |
| 20260509223605 | 12 | 220 | 1.6 | 4.8 | 0.00 | 0.79 | 0.76 | 94 | 1011.1 |
| 20260509222105 | 12 | 280 | 1.6 | 4.8 | 0.03 | 0.79 | 0.76 | 94 | 1011.1 |
| 20260509221605 | 12 | 280 | 0.0 | 0.0 | 0.03 | 0.79 | 0.76 | 94 | 1011.2 |
| 20260509221105 | 12 | 280 | 0.0 | 0.0 | 0.03 | 0.79 | 0.76 | 94 | 1011.1 |
| 20260509220604 | 12 | 280 | 0.0 | 3.2 | 0.03 | 0.79 | 0.76 | 94 | 1011.2 |
| 20260509220104 | 12 | 280 | 0.0 | 3.2 | 0.03 | 0.79 | 0.76 | 94 | 1011.2 |
| 20260509215604 | 12 | 280 | 0.0 | 0.0 | 0.05 | 0.79 | 0.76 | 94 | 1011.4 |
| 20260509215104 | 12 | 280 | 0.0 | 4.8 | 0.05 | 0.79 | 0.76 | 94 | 1011.4 |
| 20260509214605 | 12 | 286 | 1.6 | 4.8 | 0.05 | 0.79 | 0.76 | 94 | 1011.5 |
| 20260509213605 | 12 | 290 | 1.6 | 4.8 | 0.10 | 0.79 | 0.76 | 94 | 1011.7 |
| 20260509213104 | 12 | 291 | 0.0 | 3.2 | 0.13 | 0.79 | 0.76 | 94 | 1011.6 |
| 20260509212605 | 12 | 291 | 1.6 | 4.8 | 0.10 | 0.76 | 0.74 | 93 | 1011.6 |
| 20260509212104 | 12 | 291 | 0.0 | 1.6 | 0.13 | 0.76 | 0.74 | 93 | 1011.6 |
| 20260509211605 | 12 | 291 | 1.6 | 3.2 | 0.13 | 0.76 | 0.74 | 93 | 1011.7 |
| 20260509211105 | 12 | 291 | 0.0 | 1.6 | 0.15 | 0.76 | 0.74 | 93 | 1011.7 |
| 20260509205604 | 12 | 291 | 0.0 | 4.8 | 0.13 | 0.74 | 0.71 | 93 | 1011.5 |
| 20260509205105 | 12 | 291 | 0.0 | 0.0 | 0.15 | 0.74 | 0.71 | 93 | 1011.6 |
| 20260509204604 | 12 | 291 | 0.0 | 0.0 | 0.15 | 0.74 | 0.71 | 93 | 1011.6 |
| 20260509204105 | 12 | 291 | 0.0 | 0.0 | 0.15 | 0.71 | 0.69 | 93 | 1011.6 |
| 20260509203604 | 12 | 291 | 0.0 | 0.0 | 0.13 | 0.69 | 0.66 | 93 | 1011.8 |
| 20260509202605 | 12 | 291 | 0.0 | 0.0 | 0.10 | 0.66 | 0.64 | 93 | 1011.9 |
| 20260509202106 | 12 | 291 | 0.0 | 0.0 | 0.10 | 0.64 | 0.61 | 93 | 1012.0 |
| 20260509201606 | 12 | 291 | 0.0 | 1.6 | 0.10 | 0.64 | 0.61 | 93 | 1012.1 |
| 20260509201106 | 12 | 291 | 0.0 | 0.0 | 0.08 | 0.61 | 0.58 | 93 | 1012.0 |
| 20260509200605 | 12 | 291 | 0.0 | 1.6 | 0.10 | 0.61 | 0.58 | 93 | 1012.1 |
| 20260509200105 | 12 | 291 | 0.0 | 3.2 | 0.10 | 0.61 | 0.58 | 93 | 1012.1 |
| 20260509194105 | 13 | 307 | 3.2 | 9.7 | 0.13 | 0.56 | 0.53 | 92 | 1012.3 |
| 20260509193605 | 13 | 305 | 3.2 | 9.7 | 0.15 | 0.56 | 0.53 | 92 | 1012.4 |
| 20260509193104 | 13 | 277 | 3.2 | 4.8 | 0.15 | 0.56 | 0.53 | 92 | 1012.4 |
| 20260509192104 | 13 | 240 | 0.0 | 4.8 | 0.13 | 0.53 | 0.51 | 92 | 1012.8 |
| 20260509191604 | 13 | 233 | 1.6 | 3.2 | 0.15 | 0.53 | 0.51 | 92 | 1012.9 |
| 20260509191105 | 13 | 229 | 1.6 | 4.8 | 0.15 | 0.53 | 0.51 | 92 | 1012.9 |
| 20260509190605 | 13 | 277 | 4.8 | 12.9 | 0.13 | 0.51 | 0.48 | 92 | 1013.0 |
| 20260509185104 | 13 | 322 | 6.4 | 14.5 | 0.20 | 0.46 | 0.43 | 92 | 1013.3 |
| 20260509184604 | 13 | 299 | 3.2 | 8.0 | 0.18 | 0.43 | 0.41 | 92 | 1013.4 |
| 20260509184104 | 13 | 311 | 1.6 | 14.5 | 0.20 | 0.43 | 0.41 | 91 | 1013.3 |
| 20260509183104 | 13 | 299 | 6.4 | 12.9 | 0.23 | 0.41 | 0.38 | 91 | 1013.2 |
| 20260509182605 | 13 | 324 | 8.0 | 16.1 | 0.23 | 0.41 | 0.38 | 91 | 1013.1 |
| 20260509182105 | 13 | 316 | 3.2 | 9.7 | 0.23 | 0.43 | 0.38 | 91 | 1013.0 |
| 20260509181606 | 13 | 9 | 0.0 | 4.8 | 0.20 | 0.41 | 0.36 | 91 | 1012.9 |
| 20260509181104 | 13 | 205 | 1.6 | 3.2 | 0.20 | 0.41 | 0.36 | 90 | 1012.8 |
| 20260509180605 | 13 | 191 | 1.6 | 4.8 | 0.20 | 0.41 | 0.36 | 89 | 1012.8 |
| 20260509180105 | 14 | 187 | 0.0 | 1.6 | 0.15 | 0.36 | 0.30 | 89 | 1012.7 |
| 20260509175604 | 14 | 184 | 0.0 | 0.0 | 0.10 | 0.30 | 0.25 | 89 | 1012.5 |
| 20260509175104 | 14 | 184 | 0.0 | 0.0 | 0.08 | 0.28 | 0.23 | 89 | 1012.3 |
| 20260509174604 | 14 | 184 | 0.0 | 0.0 | 0.08 | 0.28 | 0.23 | 88 | 1012.4 |
| 20260509174105 | 14 | 184 | 0.0 | 0.0 | 0.05 | 0.25 | 0.20 | 88 | 1012.3 |
| 20260509173105 | 14 | 184 | 0.0 | 0.0 | 0.00 | 0.20 | 0.15 | 88 | 1012.2 |
| 20260509172605 | 14 | 184 | 0.0 | 0.0 | 0.00 | 0.20 | 0.15 | 88 | 1012.2 |
| 20260509172106 | 14 | 184 | 0.0 | 1.6 | 0.00 | 0.20 | 0.15 | 88 | 1012.2 |
| 20260509171606 | 13 | 184 | 1.6 | 4.8 | 0.00 | 0.20 | 0.15 | 88 | 1012.3 |
| 20260509171105 | 13 | 184 | 1.6 | 4.8 | 0.00 | 0.20 | 0.15 | 89 | 1012.5 |
| 20260509170604 | 13 | 184 | 0.0 | 3.2 | 0.00 | 0.20 | 0.15 | 89 | 1012.5 |
| 20260509170104 | 13 | 184 | 3.2 | 8.0 | 0.00 | 0.20 | 0.15 | 90 | 1012.5 |
| 20260509165604 | 13 | 134 | 1.6 | 4.8 | 0.00 | 0.20 | 0.15 | 90 | 1012.6 |
| 20260509165105 | 13 | 134 | 3.2 | 9.7 | 0.03 | 0.20 | 0.15 | 90 | 1012.7 |